Zurück zum Katalog

STARLINK-11646

AktivKommunikationVLEO
NORAD 63186·PAYLOAD·🇺🇸 United States

Gestartet Mar 13, 2025 von Cape Canaveral Space Force Station

Loading…

Nächste Überflüge (nächste 24 Stunden)

TLE

AktuellSource: CelesTrak SupGP

Epoche: Sep 14, 2026, 22:34 UTC

1 63186C 25048D   26257.94076389  .00058220  00000+0  45237-3 0  2578
2 63186  43.0003 258.7883 0001534 261.4104 310.2774 15.70800380    15

Verfolge STARLINK-11646 in Echtzeit mit AllMySat

Download on the App Store